GEFSNE_500_meanwind_318.txt.gz
Wind_Speed
11 11 11 12 13 13 14 14 13 13 13 13 12 12 12 12 13 13 13 13 13 13 13 13 14 15 16 16 16 16 16 16 16 16 16 16 16 17
13 13 13 13 13 14 14 14 15 15 15 15 15 14 14 14 14 14 14 14 14 14 14 14 15 15 15 15 16 16 17 17 17 18 18 18 18 17
14 14 15 14 14 14 14 15 15 15 16 16 16 16 16 16 16 15 15 15 15 14 15 15 16 16 16 16 16 16 16 17 18 18 18 19 18 18
15 15 16 16 16 16 16 16 16 16 16 17 17 17 17 17 17 17 17 16 16 16 16 17 17 17 17 17 17 17 18 18 19 19 20 20 20 19
17 17 17 17 17 17 18 18 18 17 17 17 19 19 19 19 19 19 19 19 18 19 18 18 18 18 18 18 19 19 19 20 20 20 20 20 21 21
19 19 19 18 18 18 18 18 19 19 19 19 19 20 20 20 20 20 20 20 20 20 20 19 19 19 18 19 20 21 21 21 21 22 22 22 22 21
21 21 20 20 19 19 19 19 19 20 20 20 20 21 21 21 21 21 22 21 21 21 20 21 21 21 20 20 21 22 23 23 23 24 24 24 23 23
22 21 21 21 20 21 21 21 21 21 22 22 22 22 22 23 23 22 22 22 22 22 22 23 23 22 22 22 22 23 23 23 24 24 25 24 24 24
24 24 23 23 22 22 23 23 23 23 24 24 24 24 24 24 25 25 24 24 24 24 24 24 25 25 25 24 25 25 25 25 25 25 25 26 26 25
25 25 26 25 24 25 25 24 24 25 25 25 25 25 25 26 26 26 25 25 25 25 25 26 27 27 27 27 26 26 27 27 27 26 27 27 28 27
26 26 27 27 27 27 27 27 26 26 26 27 27 27 27 28 28 27 27 26 26 26 26 27 28 29 29 28 28 28 29 29 29 28 28 28 28 28
27 28 28 28 29 29 29 29 29 29 29 29 29 28 28 29 30 29 29 28 28 28 28 28 29 29 30 30 30 30 30 30 30 29 29 28 29 29
29 29 30 30 31 31 32 31 31 31 31 31 31 31 31 31 31 31 30 29 29 29 30 30 30 30 30 30 30 31 31 31 31 30 30 29 29 29
30 31 31 31 32 33 33 32 32 33 33 32 33 33 33 32 32 32 31 31 31 30 30 31 31 31 32 31 31 31 32 32 33 32 32 31 30 30
32 32 32 32 32 32 33 34 34 34 34 34 34 34 34 33 33 33 32 32 32 31 31 31 31 31 32 32 32 31 32 33 33 33 33 32 32 31
32 32 33 33 33 33 34 34 34 34 35 35 35 34 34 34 33 33 33 33 32 32 32 32 31 32 32 33 33 32 32 32 32 33 33 33 32 31
32 32 32 32 33 34 34 35 35 35 35 36 36 35 35 34 34 34 35 34 33 32 32 32 33 33 32 33 33 33 33 32 33 33 33 32 32 32
32 32 32 33 33 33 34 34 34 34 35 35 35 36 35 35 35 35 35 34 34 34 33 33 33 32 32 33 33 34 33 33 33 33 33 32 32 32
32 31 32 32 33 33 34 34 34 35 35 35 35 35 35 35 34 35 35 34 34 34 33 32 32 33 34 34 34 34 34 33 33 34 34 34 33 33
31 31 32 33 33 33 34 34 34 34 35 35 35 34 34 34 33 33 33 33 33 34 33 33 33 33 34 34 33 33 34 34 34 34 34 33 33 34
31 32 32 32 32 32 32 32 32 33 34 34 34 33 33 33 32 32 32 32 32 33 33 34 34 34 35 35 33 32 33 33 34 34 34 34 34 34
31 31 31 31 31 31 30 30 31 31 32 32 32 32 33 33 33 32 32 33 33 33 33 34 34 34 33 33 32 32 33 33 34 34 34 34 33 33
30 30 31 31 30 30 30 30 30 30 30 30 30 31 31 32 33 33 33 34 34 34 33 33 33 33 33 32 32 32 32 32 32 32 31 32 32 32

GEFSNE_500_meanwind_324.txt.gz
Wind_Speed
13 13 12 13 13 13 13 13 13 12 12 12 12 12 12 13 13 13 13 13 13 14 14 14 14 15 15 15 14 15 15 15 15 15 15 15 15 15
15 14 14 14 15 15 15 14 14 13 13 13 13 13 14 14 13 14 14 15 15 15 15 16 16 16 16 16 16 16 15 15 16 16 16 16 15 15
17 17 16 16 16 16 16 16 16 16 15 15 15 15 15 15 15 15 15 15 16 16 16 16 16 17 17 17 16 16 16 16 16 17 17 17 17 17
18 18 17 17 17 17 18 18 18 18 17 17 17 17 16 16 16 15 16 16 17 17 17 17 17 17 18 17 16 17 17 17 17 18 18 18 18 18
20 20 20 20 20 19 19 19 19 19 19 19 19 19 19 19 18 18 18 18 18 18 18 18 18 19 19 18 18 18 18 18 18 18 18 18 19 19
21 21 22 21 21 21 20 20 20 21 21 21 21 21 21 21 20 20 20 20 20 19 19 20 20 20 20 20 20 20 20 19 19 18 18 19 19 19
23 23 23 23 22 22 22 22 22 22 23 23 22 22 22 22 21 21 22 21 21 21 21 21 21 21 22 22 22 22 21 21 21 20 20 20 20 20
25 25 24 24 24 24 24 25 24 24 25 25 24 23 23 23 23 23 23 23 23 23 24 23 24 24 24 24 23 23 23 23 22 22 22 22 21 21
27 26 26 26 26 26 26 26 27 27 27 27 26 25 25 25 25 25 24 25 25 24 25 25 25 24 25 24 24 24 24 24 24 24 25 24 24 24
28 28 27 27 27 27 27 27 27 28 28 28 28 27 27 27 27 27 26 26 26 26 26 26 26 26 25 24 25 25 25 26 26 26 26 26 26 26
30 29 28 28 28 29 29 28 29 29 30 30 29 29 29 30 30 29 29 27 27 27 27 27 27 27 27 26 25 25 26 27 28 28 27 27 27 27
30 30 30 30 30 30 30 30 30 30 31 31 31 31 31 31 31 31 30 30 29 29 29 29 28 28 28 28 27 27 27 27 28 29 29 29 28 28
31 31 31 31 31 32 32 32 32 33 32 33 33 33 32 32 32 32 32 31 31 31 31 31 30 29 29 29 29 29 29 28 28 29 30 30 29 28
31 31 31 32 31 32 32 33 33 34 33 33 33 32 33 32 32 32 31 31 31 31 31 31 31 30 30 29 29 30 30 30 30 29 29 29 29 29
31 32 32 32 32 32 32 33 33 34 34 34 33 32 33 33 32 32 32 32 32 32 32 31 31 31 31 31 31 30 30 29 30 29 29 29 29 30
32 32 32 31 31 31 32 33 33 33 33 33 33 32 32 32 32 31 31 31 31 31 32 32 31 31 32 32 31 30 29 29 29 29 29 30 30 31
32 31 32 32 32 32 32 32 32 32 31 32 32 32 32 31 31 31 31 31 31 32 32 32 31 31 31 31 31 30 30 30 30 29 30 30 30 31
32 31 31 31 32 32 32 33 33 32 32 32 32 32 32 31 30 31 31 31 31 31 32 31 30 31 31 31 31 30 29 29 30 30 30 31 31 31
31 31 31 31 32 32 32 32 32 32 32 32 32 32 31 31 31 31 31 32 32 31 31 31 31 32 32 31 31 31 31 31 32 32 32 32 32 32
30 31 30 30 31 31 31 32 31 31 32 32 32 31 31 31 31 31 31 31 31 31 31 30 31 31 31 31 31 31 31 32 32 32 33 33 33 32
30 30 29 29 29 30 30 30 30 30 31 31 31 31 31 31 31 30 30 30 30 30 29 29 30 31 31 31 31 31 32 32 32 32 32 32 32 32
29 29 29 29 29 29 30 30 30 29 29 29 29 30 30 30 30 30 29 29 29 28 28 29 29 29 30 31 31 32 32 32 31 31 31 30 30 30
29 29 29 29 29 30 30 29 29 28 29 29 29 29 29 29 29 30 29 29 28 29 29 29 29 29 30 31 31 30 30 30 30 29 29 30 30 29

GEFSNE_500_meanwind_330.txt.gz
Wind_Speed
12 13 13 13 13 13 13 13 13 13 13 13 13 13 13 13 13 14 15 14 14 14 14 15 16 16 17 17 18 18 17 17 17 17 17 18 18 18
14 14 15 15 15 15 15 14 14 15 15 15 15 14 14 15 15 15 15 15 15 15 16 16 17 17 18 18 18 18 17 17 18 18 18 18 18 18
16 16 16 17 17 17 17 17 16 16 16 16 16 16 16 16 16 16 17 17 17 17 18 19 19 19 18 18 19 19 19 19 19 19 19 18 18 18
18 18 17 17 17 17 18 18 19 19 18 18 18 19 18 18 18 18 19 19 19 19 19 20 20 21 20 20 20 21 21 21 21 20 20 20 19 19
20 20 20 20 19 19 20 20 19 20 20 19 20 21 20 20 19 19 20 20 21 21 20 20 21 22 22 22 22 22 22 22 22 22 22 22 21 21
22 22 22 22 22 22 22 21 21 21 21 22 22 22 23 22 22 22 22 22 22 22 21 21 22 23 23 23 23 23 23 23 24 23 23 23 23 23
24 23 24 24 23 23 23 23 23 23 23 23 24 25 25 25 25 25 24 25 25 24 24 24 24 24 25 24 24 24 25 25 25 25 25 25 25 25
24 24 25 25 25 25 25 25 25 25 25 25 25 26 27 27 27 28 27 27 27 27 27 27 27 27 27 26 26 26 26 26 26 26 27 27 26 26
25 25 26 26 26 27 27 27 27 27 27 27 27 27 28 29 30 30 29 29 28 28 29 29 29 29 28 28 28 28 28 28 28 27 28 28 28 27
27 27 27 27 28 28 28 28 28 28 29 29 28 28 28 29 30 29 29 30 30 30 30 30 30 30 30 29 29 30 29 29 29 29 28 28 29 29
29 29 29 29 29 29 29 29 29 30 30 30 30 30 30 30 30 30 30 30 30 30 31 31 31 31 31 31 30 30 29 29 29 30 29 28 28 28
30 31 31 30 31 31 31 31 31 31 32 32 32 32 32 31 32 32 31 31 31 31 31 31 31 31 31 31 30 30 30 30 30 30 30 30 29 28
31 32 32 32 32 32 32 32 32 33 33 33 33 34 34 34 34 34 33 33 32 31 31 31 31 31 31 30 30 30 30 30 31 31 31 31 31 30
32 33 34 34 33 32 33 33 33 33 33 34 34 34 34 34 34 34 34 34 32 31 31 31 30 30 30 30 29 30 30 30 30 30 30 30 30 30
32 32 32 32 31 31 32 32 33 32 32 32 33 33 34 34 33 33 34 33 33 32 31 32 31 31 31 30 30 29 29 29 29 29 30 30 30 30
31 30 30 30 30 30 30 30 31 31 31 31 32 33 33 33 33 33 34 33 33 32 32 32 32 31 31 31 30 29 29 30 29 29 30 30 31 31
29 29 28 28 28 29 29 29 30 31 30 30 30 30 30 30 31 32 33 33 33 33 32 33 33 33 33 32 31 30 29 28 29 30 31 31 31 31
29 28 28 28 28 29 29 29 30 31 31 30 30 30 29 29 30 30 30 30 31 30 30 31 32 32 32 31 31 31 30 30 29 30 31 31 30 30
28 27 27 28 28 29 29 29 29 30 30 31 30 30 30 30 30 29 29 29 30 30 29 30 30 30 30 30 30 30 30 30 30 30 30 30 31 31
28 28 28 28 28 29 29 29 28 29 30 30 30 30 30 30 30 29 29 30 30 30 29 29 29 29 30 30 30 30 30 30 30 29 30 31 32 32
29 29 28 28 28 28 28 28 28 29 29 29 29 29 29 29 29 29 29 29 29 29 29 29 29 29 30 29 29 29 30 30 30 30 30 31 31 31
29 29 29 28 27 27 27 26 26 26 26 26 27 27 27 27 28 27 27 28 28 29 29 29 29 30 30 30 29 29 29 30 30 31 31 31 30 30
28 28 28 28 28 26 25 26 26 25 26 25 25 26 26 27 27 27 27 27 27 27 27 28 28 28 29 29 30 30 30 31 31 31 31 30 30 30

GEFSNE_500_meanwind_336.txt.gz
Wind_Speed
17 16 16 16 16 16 17 17 17 16 16 17 18 18 18 17 18 18 18 17 18 19 19 19 19 19 19 20 20 20 20 20 20 21 21 21 20 20
19 19 19 18 18 18 19 19 18 17 17 18 19 20 20 19 19 20 20 19 19 20 20 20 20 19 19 19 20 20 20 21 21 22 22 22 21 21
20 20 20 20 20 20 20 20 21 20 19 19 20 21 21 21 21 21 21 20 21 21 20 20 20 21 21 20 20 20 21 22 22 22 22 22 23 22
22 22 22 22 22 22 22 22 22 22 22 21 22 22 22 22 23 22 22 22 22 22 22 22 22 21 21 22 22 22 23 23 23 23 23 23 23 22
23 23 23 24 24 24 24 24 24 24 24 23 24 24 25 24 24 25 24 25 24 24 24 24 24 23 23 23 23 23 23 23 23 24 24 24 23 22
24 24 24 24 24 25 25 25 25 25 25 25 25 25 26 26 26 26 26 27 27 27 27 26 26 26 25 25 25 25 25 24 24 24 25 24 24 24
25 25 26 25 25 26 26 26 27 27 27 27 28 28 28 29 29 29 28 28 28 29 29 28 29 28 28 27 27 26 26 26 25 25 26 26 26 25
26 26 27 27 27 27 27 28 28 28 29 29 29 30 30 31 31 31 30 30 29 30 30 30 30 29 29 29 29 29 28 27 27 27 27 27 27 26
27 27 27 28 28 28 28 29 29 30 30 31 31 31 32 32 32 32 32 32 32 31 31 31 31 31 30 30 31 31 30 30 30 29 29 29 28 28
29 29 29 29 29 29 30 30 31 31 32 33 33 33 33 33 33 33 32 32 33 32 32 32 32 32 32 32 32 32 31 31 31 31 30 30 30 28
31 31 31 31 31 31 32 32 32 33 33 33 33 33 33 33 33 33 33 33 33 33 33 32 32 33 33 33 33 33 32 32 33 32 32 31 31 30
32 33 33 33 33 33 33 33 33 33 33 33 34 34 34 34 34 33 33 34 34 34 33 33 33 34 34 33 34 33 33 33 33 33 32 32 32 31
33 34 34 34 34 34 33 33 34 34 34 35 36 36 36 36 35 34 34 34 34 34 34 34 34 34 33 33 33 32 33 33 32 32 33 33 33 33
34 34 34 34 34 34 34 34 35 35 36 35 35 36 36 36 36 35 34 34 34 34 33 34 34 34 33 33 32 32 32 32 32 33 33 34 34 34
35 35 34 34 34 34 34 34 34 35 35 34 34 35 35 36 36 35 35 35 35 34 34 35 35 35 34 33 32 32 32 31 31 32 32 32 34 34
35 34 33 33 33 32 32 33 34 34 34 33 33 34 34 35 35 35 34 34 34 34 34 34 34 34 34 33 33 32 32 32 32 33 32 32 32 32
34 33 33 33 32 32 33 33 33 33 33 33 33 32 32 32 33 33 32 32 32 32 33 32 32 32 33 33 33 32 31 32 33 33 32 32 33 32
34 33 33 33 33 33 33 33 32 32 32 31 31 31 31 31 30 30 30 30 29 30 30 31 31 31 32 33 32 31 31 31 31 31 31 31 31 31
33 32 32 32 32 32 32 32 32 32 31 30 30 30 30 29 28 29 28 28 28 28 29 30 31 30 30 31 32 32 31 31 31 31 31 31 31 31
32 31 31 31 31 31 31 30 30 30 29 29 29 29 28 28 28 28 28 28 28 28 28 28 29 29 29 29 29 30 30 30 30 30 31 31 32 32
30 30 30 30 30 30 29 28 28 27 27 28 28 28 28 27 27 27 27 27 27 27 27 27 27 27 27 28 29 29 29 29 29 28 29 30 30 29
28 28 29 28 28 27 27 27 27 26 26 27 27 27 27 26 26 26 26 26 26 26 26 26 26 26 26 27 28 28 28 29 28 27 27 27 28 28
28 28 28 28 27 27 27 27 27 26 26 26 26 26 25 25 25 25 25 24 24 24 24 24 25 25 25 25 26 26 26 26 26 26 27 27 27 27

GEFSNE_500_meanwind_342.txt.gz
Wind_Speed
18 18 18 18 19 19 19 19 19 20 19 19 20 19 20 20 21 21 22 22 21 22 22 21 21 21 22 22 21 20 20 21 21 21 21 21 21 21
20 20 20 20 21 21 22 22 22 22 21 21 20 20 21 22 22 22 22 22 22 22 23 23 24 24 23 23 24 23 23 23 23 22 22 22 22 23
21 22 22 22 23 23 24 24 23 23 23 23 22 22 22 23 23 23 23 23 24 24 24 25 26 26 24 25 25 24 24 24 24 24 23 23 23 24
23 23 24 24 25 25 25 25 25 25 25 25 25 25 25 25 25 25 24 24 25 25 26 27 27 27 26 26 26 26 26 26 26 25 25 25 25 24
24 24 25 25 26 26 26 26 27 27 27 27 26 27 27 27 27 27 27 26 26 27 27 27 27 27 28 28 28 27 27 27 26 26 26 26 26 25
25 25 25 26 26 26 26 26 27 28 28 28 28 28 29 29 29 29 29 29 28 28 28 28 28 29 29 29 30 29 28 28 28 27 27 27 26 25
27 26 26 26 26 26 27 27 28 28 29 29 30 30 30 30 32 31 31 31 30 30 30 30 29 29 29 30 30 30 30 29 29 28 28 28 27 26
28 28 28 28 28 28 29 29 29 30 30 31 31 32 32 32 33 33 33 32 31 31 30 29 30 29 29 31 30 29 30 31 30 30 29 28 28 27
30 30 30 30 30 30 30 31 31 31 32 32 32 33 33 33 33 33 34 33 32 31 31 30 30 30 30 31 31 31 32 32 32 32 31 30 29 29
31 31 31 31 31 31 32 32 32 33 33 33 33 33 33 33 34 33 33 33 32 31 31 30 31 32 32 32 31 32 32 33 33 33 32 32 31 30
32 32 32 32 32 32 32 32 33 34 34 34 34 34 34 34 34 34 34 34 33 33 32 31 31 31 32 32 32 33 34 34 33 34 33 33 32 32
33 34 34 34 33 33 33 33 33 33 33 33 33 34 34 34 35 35 35 35 35 33 32 32 31 31 32 32 33 33 34 34 34 34 34 34 33 33
34 34 34 34 34 34 33 33 33 33 34 34 34 35 35 36 36 36 37 36 36 35 34 34 32 32 32 32 33 32 33 33 33 33 34 34 34 34
34 35 34 34 34 34 34 34 34 34 34 34 34 35 35 36 36 36 37 37 36 35 35 35 34 34 33 32 31 31 31 32 32 32 32 32 32 32
34 35 34 34 34 35 35 35 35 35 34 34 34 34 35 35 35 35 35 36 35 35 35 35 34 33 33 32 32 31 31 31 32 32 32 32 32 32
35 34 34 34 34 33 33 33 33 33 33 34 34 34 34 34 34 34 34 33 33 33 33 33 33 32 31 32 31 31 30 30 29 30 30 31 30 31
35 35 34 34 33 31 31 31 31 31 32 32 32 32 32 32 32 32 32 31 31 31 30 30 31 31 31 30 30 30 30 30 30 30 30 30 30 30
34 33 33 31 31 30 30 30 30 30 30 30 30 30 30 30 30 30 30 30 29 29 29 29 29 29 29 28 28 28 28 27 28 29 29 29 29 30
33 32 31 30 30 29 29 29 29 28 28 28 28 28 28 28 29 29 29 29 29 29 29 28 28 29 29 28 27 28 28 28 28 27 27 28 28 29
31 30 30 29 28 27 27 27 27 27 27 27 26 26 26 27 28 28 27 27 27 28 28 28 28 28 28 28 27 26 27 28 28 27 27 27 27 28
29 29 29 28 27 26 26 26 26 25 24 24 23 24 24 24 24 25 25 25 25 25 25 25 26 27 27 28 27 27 27 27 27 27 27 28 28 28
28 27 27 27 26 26 25 24 24 23 23 23 23 23 23 23 23 23 23 24 24 24 25 25 26 26 27 27 27 27 27 27 27 27 27 27 27 27
27 27 26 26 25 24 24 23 23 22 23 23 23 22 22 22 22 22 23 23 23 23 23 24 25 25 25 25 25 25 25 25 26 26 26 26 26 26

GEFSNE_500_meanwind_348.txt.gz
Wind_Speed
20 20 21 21 21 21 21 21 21 21 22 22 22 22 21 20 19 20 20 21 22 22 22 23 22 22 22 21 21 22 21 20 20 20 19 19 19 20
22 22 22 22 23 23 23 24 24 24 24 24 24 24 24 23 23 22 22 22 22 23 23 23 23 23 24 24 24 24 24 24 23 23 21 21 21 21
24 24 25 25 25 25 25 25 25 26 26 26 25 25 25 25 25 26 26 26 24 24 24 24 24 25 25 25 26 26 26 25 25 24 23 23 23 23
26 26 26 26 26 26 26 26 27 27 27 27 27 28 27 27 27 28 28 27 26 25 25 25 26 26 28 28 28 27 27 27 27 26 26 26 25 24
27 27 27 27 28 28 28 28 29 29 29 29 29 29 28 28 28 29 29 28 28 27 27 27 27 27 28 29 29 29 29 29 29 28 28 27 27 26
28 28 28 28 29 29 30 30 30 30 31 30 30 30 30 30 30 29 29 30 29 29 28 28 28 28 28 29 30 30 30 30 30 30 30 29 28 28
29 29 29 30 30 30 30 30 31 31 31 31 31 31 31 31 31 31 31 30 30 30 30 30 30 30 29 30 30 30 31 30 31 31 30 30 29 29
29 30 30 30 30 31 31 31 31 31 32 32 32 32 32 32 32 32 32 32 31 30 31 30 30 30 29 30 31 31 31 30 31 31 31 31 30 30
30 30 30 30 31 31 32 32 32 32 33 33 33 33 32 33 33 33 33 33 32 31 31 30 30 30 30 30 30 31 31 32 32 32 32 31 31 31
30 30 31 31 31 31 32 32 33 33 34 35 34 34 34 34 34 34 33 33 32 31 31 31 31 31 30 30 30 31 32 31 31 32 31 31 31 31
31 31 31 32 32 32 33 33 34 34 34 35 35 35 35 34 34 34 34 33 32 32 32 31 31 31 31 31 31 33 34 33 32 32 32 32 32 33
32 33 33 33 33 33 34 34 34 34 33 33 33 33 34 33 33 33 33 32 32 31 31 31 30 31 31 30 31 32 33 33 34 33 33 32 32 32
32 33 34 34 35 34 34 34 33 32 32 32 32 32 32 32 32 33 32 32 32 31 31 31 29 28 28 29 29 30 31 31 31 32 32 32 32 31
33 34 35 35 35 34 34 33 32 32 31 30 30 31 31 31 32 32 32 32 31 31 31 31 29 27 27 27 27 27 27 28 29 29 30 31 31 31
35 35 36 35 35 34 34 33 32 32 31 30 30 30 30 30 30 31 31 31 30 29 29 29 28 28 27 27 26 26 26 27 28 29 29 30 29 29
35 35 35 34 34 33 32 31 31 31 30 30 29 28 28 28 29 29 28 28 28 28 29 28 28 28 27 27 26 26 26 26 27 26 26 26 27 27
35 34 34 33 32 31 30 30 29 29 29 28 27 26 27 27 27 27 27 27 27 28 28 28 28 28 27 26 25 25 24 24 25 26 26 26 26 26
35 34 33 31 30 30 29 28 28 28 27 26 27 27 26 26 26 27 27 27 27 27 27 27 28 27 27 26 24 24 24 24 25 26 25 25 25 25
33 32 31 29 28 27 27 27 27 26 26 26 26 26 25 25 25 25 26 26 26 26 26 26 26 26 26 25 24 25 24 24 24 25 25 24 24 24
30 30 29 28 27 26 26 25 25 25 25 24 24 24 25 24 24 24 24 24 24 24 24 23 24 25 25 25 24 24 24 24 24 25 25 24 24 23
28 28 27 27 26 25 24 24 24 24 24 24 23 23 24 23 23 23 23 23 23 22 22 23 23 24 25 25 23 22 22 23 24 24 24 24 24 24
27 26 26 25 25 24 24 23 24 24 24 24 24 23 23 22 21 22 22 22 22 22 22 22 23 24 24 24 23 22 22 22 23 23 24 25 25 24
26 25 25 25 25 24 24 24 24 23 23 23 23 22 22 22 21 21 21 21 20 20 21 22 22 23 23 23 23 23 23 23 23 23 24 24 25 25

GEFSNE_500_meanwind_354.txt.gz
Wind_Speed
18 19 19 20 20 21 21 21 21 21 22 22 23 23 24 24 23 22 23 23 22 23 22 22 23 22 22 22 23 23 22 22 23 23 23 22 22 22
21 21 22 22 23 23 23 23 23 24 25 25 26 26 26 26 26 25 25 25 25 25 24 24 25 25 24 23 24 25 25 25 25 25 25 24 23 23
22 23 24 24 24 25 25 25 25 25 26 27 27 28 28 28 28 29 28 28 28 28 27 26 26 25 25 25 26 26 27 28 28 28 27 25 25 25
23 24 24 24 25 25 26 27 28 28 28 28 28 29 30 31 31 31 31 30 30 31 31 29 28 27 27 28 28 28 29 29 30 30 29 28 28 27
23 23 24 25 25 26 26 27 29 29 29 29 30 31 31 32 32 33 33 32 32 32 31 30 30 30 29 29 30 31 31 31 32 32 31 31 30 30
23 23 24 24 25 26 27 27 28 29 30 30 31 32 32 33 33 34 34 33 33 33 33 32 32 31 31 31 32 32 33 34 34 34 33 33 32 32
25 25 25 26 27 27 28 28 29 29 30 31 31 32 32 33 33 34 34 34 34 33 33 33 33 32 32 32 33 33 34 34 35 35 35 35 35 34
27 27 27 27 28 28 29 30 30 30 31 31 31 31 31 32 33 34 35 35 34 35 34 34 34 34 33 32 33 33 33 34 35 36 36 36 36 35
28 28 28 29 29 30 30 30 31 31 31 30 30 30 30 30 31 32 33 33 33 33 34 34 34 34 33 33 33 33 33 34 34 35 36 36 35 35
29 29 29 29 29 30 30 31 30 30 30 30 30 30 30 30 30 31 32 32 32 33 34 34 34 34 34 32 32 32 34 34 34 35 35 35 35 35
29 29 29 30 29 29 30 31 31 30 30 29 29 29 29 29 29 29 30 31 31 32 33 34 34 34 33 33 34 33 34 34 33 33 34 33 34 34
29 29 29 29 29 29 30 31 31 30 30 30 29 29 28 28 28 28 28 29 30 31 32 32 32 32 31 32 33 34 34 33 33 32 32 33 33 33
30 30 30 30 29 30 30 31 31 30 30 30 29 29 29 28 28 28 28 29 30 30 31 32 32 32 32 31 31 32 33 32 32 32 33 33 32 31
30 30 30 30 29 30 30 31 31 31 30 31 29 28 28 28 27 27 28 28 28 29 30 31 31 31 31 31 31 31 32 32 32 33 33 32 31 30
30 31 31 30 30 30 31 31 31 31 31 30 29 28 28 28 27 27 27 28 28 28 28 29 29 29 30 30 30 30 31 32 32 33 32 31 31 31
30 31 30 30 30 31 30 30 30 29 29 29 28 27 27 27 27 27 27 27 27 26 27 28 28 28 29 29 29 29 29 30 31 31 31 30 30 30
30 30 30 30 30 30 30 29 28 28 27 27 25 25 25 26 27 26 25 25 25 25 25 26 27 27 27 27 27 27 28 30 30 31 30 29 29 29
30 30 30 30 29 28 28 28 27 26 26 25 25 25 25 25 25 25 24 23 23 23 24 25 25 25 26 25 26 26 27 28 27 28 29 29 28 28
30 29 29 29 28 27 27 26 25 26 25 25 25 24 24 24 23 23 23 23 23 22 23 23 23 23 24 25 26 26 26 25 26 26 27 27 27 27
29 29 28 28 27 26 25 25 25 24 24 24 23 23 23 23 22 22 22 22 23 23 23 23 24 23 23 23 24 24 25 25 25 25 25 26 27 27
28 28 27 27 26 25 24 24 23 23 23 22 21 21 22 22 22 22 22 21 21 22 22 23 24 24 24 23 23 23 24 24 24 24 25 25 26 27
26 26 26 25 25 24 23 23 22 23 22 21 21 20 20 21 20 20 20 20 21 21 22 23 23 23 23 23 23 23 24 24 24 25 25 25 25 26
25 25 25 24 23 22 22 22 21 21 21 21 21 21 21 20 20 20 19 20 20 20 21 22 22 22 22 23 23 23 24 24 24 24 24 24 24 25

GEFSNE_500_meanwind_360.txt.gz
Wind_Speed
19 20 20 20 20 21 21 22 22 22 22 23 25 26 26 26 26 27 27 27 28 28 28 28 28 28 28 28 28 27 26 25 25 25 25 25 24 23
21 21 22 22 22 22 23 23 24 24 24 25 26 27 28 29 29 29 29 30 30 30 30 30 29 30 30 29 29 28 28 28 27 27 27 27 27 26
23 22 22 23 23 23 24 24 25 25 26 26 27 28 29 30 31 31 32 31 31 31 31 31 31 30 30 30 31 30 30 29 29 29 29 30 29 28
24 23 24 23 23 24 25 26 26 27 27 28 29 29 30 31 31 31 32 32 31 32 32 32 32 32 31 31 31 30 31 31 31 31 31 31 31 30
24 24 24 24 24 25 26 27 28 28 29 29 30 30 30 31 31 31 32 33 33 33 33 32 33 33 33 32 30 31 31 31 32 32 32 33 33 32
25 25 24 24 25 26 27 28 29 29 30 30 31 31 31 31 31 32 32 33 34 35 34 34 34 34 34 33 32 32 32 32 33 33 33 33 33 33
26 26 26 25 26 27 28 29 29 30 30 31 31 31 32 32 31 31 31 32 33 34 34 34 34 34 34 34 34 33 33 34 34 34 35 34 34 34
27 27 26 27 27 28 29 29 30 30 30 30 30 30 30 30 31 31 31 31 31 32 32 33 34 34 34 33 33 33 34 34 35 36 36 35 35 35
28 28 28 28 29 28 28 29 30 30 30 30 30 29 30 31 31 31 31 31 30 31 31 32 32 33 34 34 34 34 34 34 35 35 36 36 36 35
29 28 28 29 29 29 29 29 30 31 31 31 31 30 31 31 31 30 29 29 30 30 30 30 31 32 32 31 32 33 34 34 35 35 35 35 35 35
29 29 29 30 30 30 30 30 31 31 31 31 31 31 31 30 29 29 29 29 29 29 30 30 30 30 30 30 31 31 32 33 34 34 34 35 35 35
29 30 30 30 30 30 30 30 31 31 31 31 31 31 30 29 29 29 29 29 30 30 30 30 30 30 29 28 30 31 31 32 32 32 33 33 34 34
29 29 30 30 30 30 30 30 30 31 30 31 31 31 31 30 30 30 29 29 29 29 29 28 28 29 28 28 29 30 31 32 33 33 33 34 34 34
28 29 29 29 30 30 30 30 31 31 30 30 29 30 30 30 30 31 30 30 29 28 28 27 27 27 27 28 29 30 31 32 32 33 33 34 34 33
28 28 29 29 30 30 31 31 31 31 30 30 30 29 28 29 29 30 30 29 28 27 26 26 26 26 26 26 27 29 30 31 32 32 32 33 33 33
29 29 29 29 30 30 31 31 31 31 30 29 29 29 29 29 29 28 27 27 26 26 25 25 26 25 25 26 26 27 29 30 30 31 31 31 32 33
28 29 30 30 30 30 30 30 30 30 30 29 28 28 28 29 27 26 25 25 25 25 25 25 25 25 25 25 25 26 27 27 28 30 31 31 31 31
28 29 29 29 29 30 30 29 29 29 29 29 28 28 28 27 26 25 24 24 24 24 24 25 25 25 25 25 25 26 26 27 27 28 28 28 29 29
28 29 29 29 28 28 29 28 28 28 27 27 27 26 25 24 24 23 23 23 23 23 23 24 24 24 25 25 24 25 25 26 26 26 27 27 27 29
28 28 28 28 28 27 27 27 26 26 25 25 25 25 24 23 23 23 22 22 21 21 21 22 23 23 23 24 24 25 25 24 24 25 26 26 26 27
28 28 27 27 27 27 27 26 25 25 24 23 23 23 23 23 22 22 21 21 21 21 21 21 22 22 23 23 23 24 25 24 24 24 24 24 25 25
27 27 27 26 26 26 26 26 25 24 24 23 23 23 23 22 21 21 20 21 21 21 22 21 21 22 22 22 22 22 23 22 22 22 21 21 22 23
26 26 26 26 26 25 25 25 24 23 23 23 23 23 22 21 21 21 21 21 21 21 21 22 22 22 21 21 21 21 21 21 20 20 19 19 19 20

GEFSNE_500_meanwind_366.txt.gz
Wind_Speed
18 18 18 19 20 21 22 22 23 23 24 24 25 24 25 25 25 26 27 27 28 29 29 29 29 30 30 30 30 30 29 28 29 27 27 27 27 26
19 19 19 20 21 22 22 23 24 25 25 26 26 26 26 27 27 27 28 28 29 30 30 31 30 30 29 30 30 30 30 29 30 29 28 27 27 28
21 21 21 21 22 23 23 24 25 26 26 27 28 28 27 28 28 29 29 30 30 30 30 31 31 31 31 30 29 29 29 29 28 28 28 28 28 29
22 22 23 23 24 24 25 26 26 27 28 28 29 30 29 30 30 30 30 31 31 31 31 31 32 33 32 31 31 30 30 29 29 29 29 29 29 29
24 24 24 24 25 25 26 27 27 27 28 29 29 30 30 30 30 30 30 30 30 30 31 32 32 33 33 33 33 32 31 31 31 31 31 31 30 30
25 26 26 26 26 26 26 27 27 28 28 29 30 30 30 30 30 30 30 30 31 31 31 32 31 32 33 34 33 32 32 33 33 33 33 32 32 31
25 26 26 27 27 28 28 28 29 28 29 31 31 30 30 30 30 30 30 30 31 31 30 30 30 30 31 33 33 32 33 33 33 34 34 33 33 32
25 26 26 26 27 27 28 28 28 29 29 29 29 29 30 29 29 29 29 30 30 30 30 30 29 29 30 31 32 32 33 33 34 34 33 33 33 33
27 27 28 28 27 27 28 29 29 29 29 30 29 29 30 30 30 29 29 29 30 30 30 30 30 29 30 30 31 32 33 34 34 34 34 34 34 34
28 28 27 28 28 28 28 29 29 29 29 29 29 30 30 30 29 29 29 29 30 31 30 30 30 29 28 28 29 30 31 32 33 33 33 33 34 34
28 28 28 27 28 28 29 29 29 29 30 30 30 30 30 30 30 29 29 29 29 30 31 30 29 29 28 28 29 29 31 31 32 33 33 32 33 34
27 28 28 28 28 28 28 29 30 30 31 30 29 29 29 30 30 29 29 29 30 30 30 30 29 28 28 28 28 28 30 30 30 31 32 32 32 32
28 28 28 27 27 27 28 29 29 30 30 30 30 29 29 29 29 29 29 29 29 29 29 29 29 28 29 29 29 29 29 29 30 30 31 30 30 31
27 26 26 26 27 27 28 28 29 29 29 29 29 29 29 29 29 29 29 29 28 28 29 29 29 29 29 29 29 30 30 30 29 29 30 30 31 31
26 26 26 26 26 26 27 27 27 28 28 28 28 28 29 29 29 29 29 28 28 27 28 28 28 27 28 28 28 29 29 29 30 30 30 30 30 30
26 25 25 25 26 26 27 27 28 28 28 28 28 28 28 28 28 28 28 27 27 26 26 26 26 26 26 27 28 28 28 28 29 29 30 30 30 29
26 26 25 25 25 25 26 27 27 27 28 28 28 28 28 27 27 27 26 26 26 26 26 26 26 26 27 26 26 27 28 28 29 29 29 30 30 29
25 25 25 25 25 25 26 26 27 26 26 26 27 27 27 27 27 26 26 25 25 25 26 25 25 25 26 26 26 26 27 28 28 28 28 28 28 29
25 24 24 25 26 26 26 26 26 26 26 26 26 26 26 26 26 25 25 24 25 25 25 25 25 25 25 25 25 26 26 27 27 26 26 27 27 27
24 24 24 25 26 26 26 26 26 26 26 26 25 25 25 24 24 24 24 24 24 24 24 25 24 24 25 25 25 25 26 26 26 26 26 26 26 26
24 24 24 25 25 25 25 25 25 25 25 24 24 24 24 23 23 23 23 24 24 24 24 24 23 23 24 24 25 24 24 24 25 25 25 25 25 25
24 24 24 24 24 25 25 25 24 23 23 23 23 23 23 22 22 22 22 22 22 22 22 22 23 23 23 23 23 23 22 21 22 23 23 24 24 24
24 24 24 24 24 25 24 24 23 23 23 23 22 22 22 21 21 21 20 21 21 20 21 21 21 21 21 21 21 22 21 20 21 22 22 22 22 22

GEFSNE_500_meanwind_372.txt.gz
Wind_Speed
21 21 22 22 21 21 22 23 23 23 23 24 24 24 24 24 25 25 25 25 25 25 25 25 26 26 27 27 27 28 28 27 27 27 27 27 26 26
21 21 22 23 22 22 23 23 24 24 24 25 25 25 26 26 26 26 26 25 26 26 26 26 26 27 27 27 27 28 28 28 28 28 28 28 27 26
22 22 22 22 22 22 22 24 25 25 25 26 27 27 27 28 28 27 27 27 26 26 26 27 27 27 28 28 28 28 28 28 29 29 29 29 28 27
23 22 22 22 22 22 23 24 25 26 26 26 27 27 27 29 29 29 28 28 28 28 28 28 28 28 29 29 29 28 28 28 28 28 28 29 29 28
23 23 23 22 23 23 24 25 25 26 26 27 28 28 28 29 30 30 30 30 29 29 29 29 29 29 29 29 28 27 27 27 28 28 28 28 28 28
23 24 23 23 24 24 25 27 27 27 28 28 29 29 29 29 30 31 31 30 30 29 29 29 29 29 27 27 27 27 27 28 28 28 29 29 29 30
25 25 25 24 25 25 26 27 27 28 29 29 29 29 29 29 29 29 29 29 29 29 28 29 29 29 28 27 28 28 28 29 29 29 29 29 30 31
26 26 26 26 26 27 27 27 27 28 28 29 29 29 29 29 29 29 29 28 27 28 28 28 28 27 27 28 28 29 29 29 29 29 30 30 30 31
26 26 27 28 28 28 28 27 27 27 28 28 28 29 29 29 29 29 28 28 28 28 28 27 27 26 27 28 28 29 29 29 30 30 31 31 31 31
27 27 27 28 27 28 28 28 28 29 29 30 30 29 29 29 29 28 28 28 29 29 28 26 26 26 26 27 28 28 30 30 30 30 30 31 32 32
27 28 28 28 27 27 28 28 28 28 29 29 30 30 29 29 30 29 29 29 28 28 28 27 26 27 26 27 27 27 29 30 30 31 31 31 31 31
27 27 27 27 27 27 27 27 26 27 28 28 28 29 29 29 29 29 28 28 28 26 27 27 27 27 27 27 27 27 28 29 29 29 30 30 31 31
27 27 27 26 26 26 26 26 26 27 27 27 27 28 28 28 28 28 27 27 26 25 25 26 27 28 28 27 27 27 27 27 28 28 28 29 29 30
26 26 26 25 25 26 26 26 27 28 28 28 28 27 27 27 27 27 27 26 26 25 25 26 26 26 27 27 27 27 26 26 27 28 28 28 28 29
26 25 25 25 25 25 26 26 27 27 27 27 26 26 27 27 26 26 26 25 25 24 24 25 25 25 25 26 26 26 27 27 27 28 28 28 28 28
25 24 24 24 25 25 25 26 26 26 26 26 26 27 27 26 26 25 25 24 24 23 24 24 25 25 25 25 25 25 26 26 27 27 27 28 28 28
24 24 24 24 24 24 24 25 26 26 26 27 27 27 26 25 25 24 24 24 23 23 24 24 24 25 25 25 25 25 26 26 26 27 26 27 27 27
24 24 24 24 25 24 24 25 25 26 26 26 26 26 25 24 24 23 23 23 23 24 24 24 24 25 25 25 25 25 25 25 25 25 25 26 26 27
24 25 25 26 26 25 25 25 26 26 26 26 26 25 24 24 23 23 23 23 23 24 24 24 24 25 25 25 25 25 26 25 25 25 25 25 26 26
25 25 25 26 25 25 25 25 25 26 26 25 25 25 24 24 23 23 23 23 23 23 23 23 24 24 24 25 25 25 25 25 25 25 24 25 25 25
25 25 25 25 25 26 25 25 25 25 25 25 25 25 24 23 22 22 21 21 21 22 23 23 23 24 24 24 24 24 24 24 24 23 23 24 24 23
24 25 25 25 25 24 24 25 25 26 25 25 25 24 23 23 22 21 21 21 20 20 21 21 21 22 22 22 23 23 22 22 22 22 23 23 23 22
25 25 25 25 24 24 24 25 26 25 25 25 25 23 23 22 22 22 21 20 20 21 20 20 20 20 20 20 21 21 21 21 21 22 22 22 22 22

GEFSNE_500_meanwind_378.txt.gz
Wind_Speed
18 19 19 19 19 19 19 19 20 19 19 20 21 21 22 22 22 23 24 24 24 24 25 25 26 26 26 26 26 26 27 28 28 28 28 28 29 28
18 19 19 19 19 19 19 20 21 21 21 21 22 22 23 23 23 24 24 25 25 25 25 25 26 27 27 27 27 28 28 28 28 28 29 29 29 29
19 19 19 20 20 20 21 21 21 22 22 22 23 23 24 23 24 25 25 26 26 26 26 26 26 26 27 27 28 28 28 29 29 29 29 29 29 29
19 19 19 20 20 21 22 22 22 23 23 22 23 24 24 24 25 26 27 27 27 26 27 27 27 27 27 27 27 28 29 30 30 30 30 29 30 30
21 20 20 21 22 22 22 23 23 24 24 23 24 24 25 25 26 26 26 26 26 26 27 27 27 26 26 27 27 28 28 29 30 31 31 31 30 31
22 22 22 22 23 23 23 23 24 24 24 24 25 25 25 26 26 25 24 25 25 26 26 26 26 26 26 27 27 28 29 30 31 31 32 33 33 32
22 22 22 22 23 23 23 24 24 25 25 25 25 25 26 26 26 26 25 26 25 26 26 27 26 27 27 28 28 29 30 30 31 31 31 32 33 33
23 23 23 23 24 24 25 25 25 25 25 25 25 26 27 26 26 26 27 26 25 26 26 26 27 28 29 29 28 28 29 30 31 32 32 32 33 33
24 24 24 24 24 25 25 26 26 26 25 25 25 26 26 26 26 26 26 26 26 26 26 26 27 28 28 28 28 29 30 30 29 30 31 31 32 33
25 25 25 24 25 25 25 25 26 26 26 26 26 27 26 26 26 27 27 26 26 26 27 26 27 27 27 27 27 29 30 30 30 30 31 31 31 32
25 26 26 25 25 25 24 25 25 26 27 27 27 26 26 26 26 27 27 26 26 26 27 27 26 26 27 26 27 28 29 30 31 31 31 32 32 32
25 25 25 24 24 24 24 23 24 25 26 27 26 26 25 25 25 25 25 26 26 26 27 27 26 26 25 26 26 28 29 29 30 31 31 32 33 33
25 24 24 24 24 24 24 23 24 25 25 25 25 24 24 24 24 24 24 25 26 26 26 26 26 26 26 26 26 27 28 28 29 29 30 31 32 32
24 24 24 24 24 23 23 24 24 24 24 24 23 23 23 24 24 24 24 25 25 26 26 26 26 26 26 26 27 27 27 28 29 29 29 30 31 32
23 23 23 23 23 23 23 24 24 24 24 24 23 23 23 24 24 24 24 24 24 25 25 25 26 26 26 26 26 27 27 28 28 29 30 30 30 31
23 23 23 24 24 24 23 23 23 23 23 23 22 22 22 22 22 22 23 23 23 24 24 25 26 26 26 26 26 26 27 28 28 29 30 30 30 30
22 22 22 22 22 22 22 22 22 22 22 22 22 22 21 22 22 22 22 22 22 23 24 24 25 25 25 25 25 26 26 27 28 28 29 29 30 30
22 22 22 22 22 21 21 21 22 22 23 22 22 22 22 22 22 22 22 21 22 22 23 23 23 24 25 25 26 26 26 27 27 28 28 28 28 28
22 22 22 21 21 22 22 22 22 22 22 22 21 21 22 22 22 21 22 22 22 22 22 22 23 24 24 24 25 25 25 25 25 25 25 25 26 26
22 22 22 22 22 22 23 23 22 22 23 22 22 22 23 23 22 22 21 21 21 21 22 22 22 22 24 24 24 24 24 24 24 24 23 23 23 23
22 21 21 22 22 23 23 22 22 23 23 23 22 22 22 22 22 22 22 21 21 22 22 22 22 22 22 22 22 22 22 22 23 23 22 22 22 22
22 21 22 22 22 22 22 22 22 23 24 23 22 23 22 22 22 23 22 22 22 22 22 22 22 22 22 22 21 21 20 21 21 22 22 22 22 22
22 22 23 23 23 23 23 23 23 23 23 22 22 23 22 22 23 22 22 21 21 21 21 21 22 22 22 22 22 20 20 20 21 21 21 21 21 21

GEFSNE_500_meanwind_384.txt.gz
Wind_Speed
20 21 22 22 22 23 23 23 23 23 24 24 24 25 26 25 25 25 25 24 26 26 26 26 27 27 26 27 26 26 26 26 25 25 25 26 26 26
21 22 22 23 23 23 23 23 23 23 23 23 24 25 25 25 25 24 25 25 26 27 28 28 27 28 27 28 28 28 28 28 27 27 26 26 27 27
22 22 23 23 23 24 24 24 23 23 22 23 24 25 25 25 24 24 24 25 26 27 28 29 29 28 28 29 29 30 30 30 30 29 29 29 29 29
22 22 22 23 23 24 24 24 24 24 24 24 25 26 26 25 25 25 25 26 26 27 28 29 29 29 29 29 29 30 31 31 31 31 31 30 30 30
23 23 23 23 24 24 24 24 24 24 25 25 26 26 26 26 26 26 26 27 27 27 27 28 28 29 30 30 30 31 32 32 32 33 32 31 31 31
23 24 24 24 24 24 25 24 24 25 25 26 25 25 26 26 26 26 27 27 28 27 27 28 28 28 29 30 30 32 33 33 32 32 32 31 31 32
24 24 25 25 26 26 25 25 26 26 26 26 26 26 26 26 26 26 27 27 27 28 28 28 28 27 28 28 31 31 32 32 32 32 32 31 31 31
25 25 25 26 26 26 26 26 26 27 27 27 26 26 27 27 27 27 27 27 28 28 28 28 28 28 28 28 29 31 31 31 32 32 33 32 32 32
24 25 25 26 27 26 26 26 26 27 27 27 27 26 26 28 28 28 28 28 28 28 28 27 28 28 28 29 29 29 30 31 31 31 32 32 32 31
25 26 26 27 27 27 27 26 27 27 27 27 27 27 27 28 28 29 29 29 29 29 29 28 27 28 28 28 28 28 28 29 30 30 30 31 31 31
25 26 27 27 27 27 27 27 27 27 26 26 26 26 26 27 28 28 28 28 28 28 28 27 26 26 26 25 26 27 28 28 28 29 30 30 30 30
26 26 27 27 26 26 26 26 26 26 26 26 26 25 25 26 27 28 27 27 26 27 27 26 25 25 25 25 27 28 29 29 29 29 30 31 31 31
26 27 27 27 26 26 26 26 26 26 25 25 25 25 25 25 25 25 26 26 26 26 27 28 27 27 27 26 27 27 28 28 28 28 29 30 30 30
26 26 26 26 26 26 26 26 26 26 25 25 25 24 25 25 25 25 25 26 25 26 27 28 28 28 28 28 27 27 28 28 28 28 29 29 29 29
25 25 25 26 26 25 26 26 25 25 25 24 24 24 24 24 23 24 24 24 25 25 26 27 27 27 27 27 27 27 28 29 29 29 29 29 29 29
25 25 25 25 25 25 25 26 25 25 24 23 23 23 22 23 23 23 24 25 24 24 25 25 26 26 27 27 27 27 27 28 29 29 30 29 29 29
24 24 24 24 24 24 24 24 23 23 22 22 22 22 22 22 23 22 23 23 23 24 24 24 25 25 25 26 26 26 26 27 28 28 29 29 29 29
23 24 24 24 24 24 23 22 22 22 21 21 22 22 22 21 21 21 22 23 23 24 24 24 25 25 25 25 26 26 27 27 28 28 28 28 28 28
23 23 22 23 23 24 23 23 22 22 21 21 21 20 21 21 21 22 22 23 23 24 24 24 24 24 25 26 25 26 26 26 26 27 27 27 26 26
23 22 22 23 23 23 23 23 23 23 22 22 21 22 22 22 22 22 22 22 22 23 23 23 24 24 25 25 24 24 24 25 25 25 26 26 26 26
23 23 23 23 22 22 23 23 23 23 22 22 22 22 22 22 22 22 23 23 23 23 23 23 24 24 23 23 23 23 23 23 24 24 24 24 24 25
23 23 23 23 23 23 24 24 24 23 23 23 23 23 22 22 22 23 23 23 23 23 23 23 23 22 22 22 21 21 22 22 22 23 23 22 22 23
23 24 24 23 23 24 24 24 23 23 22 22 22 23 23 22 23 23 23 22 22 22 21 21 21 21 21 22 21 20 20 20 21 22 22 22 22 22